GFSNGP_850_thetae_159.txt.gz
Theta_e
327 328 328 328 327 327 329 329 331 331 332 334 338 337 337 338 335 336 338 339 339 340 341 341 341 341 342 343 344 345 346 347 348 349 349 351 352 349 349 345 343 340 329 325
326 326 326 327 327 328 327 328 329 329 332 334 335 332 333 334 337 337 338 338 338 339 339 339 340 340 341 343 345 347 348 350 351 351 352 353 353 352 347 343 340 333 326 325
328 327 327 326 327 327 328 328 328 330 331 333 332 333 333 333 336 335 336 335 333 333 335 338 340 341 343 343 344 345 346 348 350 352 353 355 355 348 342 340 336 329 325 326
329 329 330 330 329 328 328 329 329 330 333 336 335 335 333 333 333 333 336 335 333 336 338 340 343 342 340 336 340 344 346 348 350 353 354 355 350 345 341 338 331 327 325 328
327 330 331 330 328 328 328 330 329 331 333 331 331 331 332 328 329 332 339 338 338 340 342 343 339 336 331 332 337 337 339 343 347 351 353 353 347 342 340 334 329 325 325 324
327 328 332 330 332 328 330 333 333 332 333 333 333 333 337 331 330 332 335 338 342 343 341 338 338 335 333 333 331 331 330 336 343 347 352 351 344 341 338 333 327 326 325 321
325 327 331 332 335 330 333 334 335 332 331 332 336 335 335 331 331 334 339 343 341 340 341 342 338 331 326 327 327 330 334 340 344 347 351 347 342 340 336 330 326 327 326 323
326 328 329 337 336 333 338 336 334 334 332 333 336 334 336 336 339 343 342 342 341 335 327 325 323 323 322 323 323 329 336 341 345 348 349 345 341 339 334 329 327 327 327 325
330 328 337 336 340 336 332 338 337 335 335 337 338 338 338 339 339 337 334 333 331 329 329 328 328 331 331 332 334 330 326 330 346 348 348 344 340 339 332 330 329 328 328 328
334 338 336 332 333 335 335 337 337 337 337 336 335 335 334 334 332 329 326 324 322 322 324 323 322 321 326 336 341 338 338 337 345 346 347 342 338 336 332 331 330 327 327 325
335 331 331 331 334 336 337 336 335 335 334 332 334 327 323 322 323 324 325 322 320 319 317 316 315 314 313 313 318 329 344 344 344 343 343 338 337 334 333 332 330 329 325 323
336 333 338 334 334 335 335 334 334 334 333 330 323 321 322 321 321 321 320 319 318 316 314 315 316 316 316 315 314 316 339 343 342 340 338 337 336 334 333 331 330 328 324 325
335 332 331 330 332 332 331 330 332 330 322 321 322 324 323 322 321 320 319 317 316 317 318 319 319 318 318 318 320 318 323 335 338 339 337 336 334 333 331 330 329 325 326 325
327 326 326 327 327 327 326 323 322 323 324 323 319 318 318 317 316 316 315 317 318 320 320 320 319 320 321 322 324 324 327 330 333 331 331 332 331 331 330 329 324 325 324 319
326 327 324 322 322 322 322 324 323 321 320 322 324 326 328 328 322 318 319 319 318 319 320 321 322 322 323 326 326 325 326 331 332 331 331 330 330 329 329 326 324 324 319 315
322 322 322 322 321 322 322 321 320 318 318 318 318 318 318 318 319 319 319 321 321 319 321 323 323 322 324 324 325 325 327 329 328 327 326 326 329 329 327 324 324 323 317 314
323 324 323 323 322 322 322 322 320 319 319 320 321 321 322 323 323 323 322 322 320 322 323 323 323 323 324 323 326 326 326 326 325 328 327 326 325 324 324 325 324 320 317 316
326 326 326 324 325 324 322 321 321 322 322 323 323 323 323 323 321 320 322 321 322 323 324 323 324 323 324 323 322 322 322 322 323 326 327 325 325 325 324 324 323 320 317 316
323 324 324 324 324 324 324 324 324 324 324 324 324 323 322 322 322 322 323 323 323 323 324 325 325 324 323 322 322 322 322 321 322 323 325 324 324 323 323 323 322 320 318 318
324 323 323 322 321 321 321 321 321 322 321 322 324 325 325 325 324 323 323 324 324 324 326 326 325 324 323 321 322 323 321 322 323 324 324 324 322 322 323 322 322 321 319 318
324 323 323 323 323 322 322 322 321 320 320 319 319 320 322 323 324 325 325 324 325 326 327 326 323 321 321 322 323 324 322 322 321 322 323 323 322 324 322 322 322 322 317 315
324 324 323 322 320 319 318 318 319 319 319 320 321 321 322 321 322 324 325 326 327 326 324 323 321 320 320 321 323 324 323 321 321 321 322 322 323 322 322 321 319 316 317 314
323 322 318 317 319 319 319 319 319 319 320 322 324 325 326 326 326 326 326 326 324 324 322 321 319 318 318 319 320 321 321 321 321 322 321 321 321 320 320 320 318 316 311 310
319 315 314 316 319 320 320 320 320 320 320 321 324 323 324 324 324 324 324 324 324 322 321 319 317 316 317 315 314 314 316 318 319 318 320 320 317 315 316 318 319 318 312 308
315 314 313 313 312 311 311 313 318 321 321 322 322 324 323 322 320 321 321 321 321 320 320 317 316 316 315 315 314 314 313 312 312 312 313 312 312 311 310 310 310 311 309 307
317 317 317 318 318 317 317 315 312 311 317 320 321 320 319 319 319 320 320 320 320 320 318 317 316 316 315 314 314 314 313 312 311 311 310 310 308 307 307 307 307 307 306 304
318 318 318 317 316 316 315 315 315 313 310 312 315 316 317 317 319 319 318 314 311 311 313 314 314 312 311 311 311 311 310 309 309 308 307 307 306 305 305 305 305 304 304 303

GFSNGP_850_thetae_162.txt.gz
Theta_e
331 330 328 328 328 329 330 330 330 331 332 334 335 336 334 333 334 341 344 348 348 350 350 350 350 350 349 345 348 350 348 346 349 355 358 357 356 353 349 351 348 343 342 341
332 331 331 329 329 329 329 329 330 331 332 334 333 333 334 335 338 339 343 346 349 351 353 352 346 342 343 343 343 344 345 348 356 359 357 359 358 353 352 349 346 344 343 339
331 330 330 331 331 331 330 330 330 331 331 332 333 334 334 335 335 336 338 343 348 351 352 349 349 344 342 350 346 346 348 359 359 353 354 355 354 354 353 349 346 344 340 336
331 330 332 330 330 330 330 330 331 331 332 333 333 332 333 336 337 337 337 340 347 350 351 346 348 344 346 351 350 353 358 355 349 351 353 354 353 353 348 344 342 339 334 332
330 332 332 330 332 331 330 331 331 332 332 332 331 333 333 334 334 337 338 341 347 349 349 342 349 348 346 345 350 357 345 342 344 347 351 354 351 348 343 340 338 333 333 335
327 329 332 331 332 331 332 334 333 332 333 333 332 335 335 333 336 340 340 347 350 349 351 352 352 347 344 356 356 348 335 333 334 338 344 349 350 344 341 339 335 334 336 336
325 327 329 330 332 332 335 333 332 332 333 333 337 335 340 341 342 345 348 350 350 351 353 354 351 347 347 347 332 325 324 322 325 327 333 347 348 343 341 337 338 336 336 334
325 327 328 332 337 335 334 333 340 339 337 335 336 343 342 345 347 349 350 351 353 353 352 350 342 336 337 326 326 325 329 335 337 344 347 349 345 342 339 336 337 336 335 334
326 327 331 327 336 334 341 342 342 341 340 338 341 342 344 347 348 350 349 347 347 347 347 346 341 331 323 323 323 324 328 336 345 347 348 346 344 341 339 336 336 335 335 333
327 327 329 331 336 339 340 341 342 341 341 341 342 344 346 347 346 344 343 341 339 336 335 334 333 332 332 335 337 336 338 344 346 348 346 345 343 341 340 338 335 335 334 333
331 330 331 335 337 340 342 342 341 340 340 340 340 339 336 332 331 329 328 327 324 324 322 319 316 315 314 314 317 334 345 342 344 344 344 344 341 340 337 337 336 335 333 332
331 331 336 332 337 342 341 340 339 338 338 337 334 331 330 329 329 329 328 328 327 326 327 327 324 317 315 314 316 322 334 343 341 340 341 339 338 337 335 334 332 330 329 327
338 336 336 341 340 340 340 338 337 336 333 331 330 331 330 329 328 325 324 324 323 320 319 318 318 318 319 320 322 319 323 323 325 337 335 337 337 336 333 332 331 330 329 325
334 335 337 339 340 339 338 336 332 329 330 330 330 330 328 325 326 325 322 320 317 317 317 318 319 319 320 322 321 321 320 325 333 336 334 334 334 333 332 331 328 327 326 325
334 333 336 337 336 335 332 329 329 329 328 327 327 326 325 325 325 325 319 321 319 320 321 323 321 322 321 320 323 326 332 332 333 332 332 332 332 331 331 330 326 321 323 315
332 332 332 331 329 328 328 328 328 328 328 328 327 327 326 325 322 320 319 319 326 324 328 328 322 322 322 325 325 331 331 330 332 332 331 331 332 331 331 329 326 320 317 315
329 330 328 327 327 327 327 326 325 324 324 324 324 324 324 324 324 324 320 320 325 328 330 332 329 324 328 331 331 330 330 330 328 330 330 330 329 330 330 329 326 322 320 317
328 327 327 327 327 327 327 327 328 328 328 328 328 328 327 327 327 327 327 327 329 330 331 325 324 324 323 323 324 327 328 329 329 329 329 330 329 329 328 328 327 323 320 316
329 329 329 329 329 329 328 329 329 329 329 329 328 328 329 328 328 329 329 329 330 331 330 323 324 324 324 322 324 326 327 327 327 328 327 328 328 328 328 327 325 322 321 315
327 327 327 327 327 327 327 327 327 327 328 329 329 329 329 330 328 329 330 330 330 331 325 325 326 326 323 322 321 326 327 327 326 326 327 327 327 327 327 326 325 323 320 317
323 323 324 324 324 325 325 325 325 325 325 325 326 327 329 330 330 330 329 327 328 325 328 326 328 327 326 325 322 326 325 326 326 327 326 327 327 326 325 324 323 321 319 317
323 322 322 322 322 322 323 323 324 324 324 326 326 327 327 328 329 330 330 330 330 326 327 327 326 322 324 322 326 326 325 325 324 324 325 325 326 325 324 322 320 321 318 313
320 321 322 322 322 322 322 323 323 323 324 325 325 326 325 328 327 327 328 328 329 326 327 325 321 319 319 323 324 324 323 323 323 323 324 324 324 322 321 322 320 317 315 313
319 320 322 323 323 323 323 323 323 322 322 323 323 325 326 326 325 326 326 326 326 324 325 320 318 318 323 321 319 320 321 323 323 323 320 321 321 318 318 317 316 315 314 312
319 319 318 317 316 316 317 320 322 323 323 322 323 322 321 322 324 323 324 324 322 323 322 316 316 318 319 319 318 317 317 319 319 317 317 316 315 317 318 316 315 314 312 311
320 320 319 320 319 318 317 316 315 318 322 320 320 320 320 320 319 323 323 322 322 321 321 317 317 317 318 317 316 316 316 313 313 313 314 314 314 313 314 314 313 311 310 309
320 319 319 318 318 318 317 316 316 315 316 318 318 318 318 318 319 320 319 316 317 318 319 318 316 315 315 315 315 315 315 314 313 312 312 312 311 311 311 310 309 309 308 307

GFSNGP_850_thetae_165.txt.gz
Theta_e
330 330 330 330 329 329 329 331 333 333 334 335 337 337 336 335 335 334 334 341 347 349 348 348 350 350 351 351 353 355 357 360 361 363 363 363 361 360 358 357 358 352 350 347
332 330 330 331 330 330 330 329 330 331 332 334 333 334 335 336 335 335 335 338 344 351 351 352 353 353 353 352 354 356 358 360 361 363 363 361 360 359 358 355 353 353 348 347
334 331 332 332 332 331 331 330 330 331 332 333 333 334 335 334 335 335 334 335 340 349 354 355 356 356 356 357 357 358 360 362 363 364 363 360 357 359 357 355 353 352 347 346
334 334 335 333 333 332 331 332 332 332 332 333 333 332 333 333 334 334 334 335 337 346 354 359 358 358 358 359 360 361 363 364 365 360 353 351 354 355 357 355 352 350 347 343
333 334 333 332 331 332 333 333 333 333 333 332 331 332 333 333 333 333 336 337 340 343 355 358 359 360 359 361 363 364 365 364 350 348 349 348 348 351 350 353 351 345 343 342
333 334 336 333 332 331 332 333 332 332 332 333 332 335 334 332 332 333 334 339 343 348 354 358 358 360 362 364 364 364 362 343 342 336 332 335 341 345 347 347 341 342 339 336
331 332 332 332 332 332 335 335 333 332 332 332 338 335 333 341 344 343 347 349 351 351 353 357 361 363 363 362 361 359 358 355 352 347 338 341 352 350 346 342 340 336 338 337
329 330 332 329 330 333 336 333 333 334 335 335 334 333 345 349 351 350 351 352 352 354 360 362 362 361 359 357 355 354 355 354 353 352 351 350 352 346 341 342 340 337 338 337
328 329 329 329 330 334 335 343 340 344 342 340 338 346 347 349 351 352 353 355 357 358 358 358 355 354 354 353 353 353 347 346 346 335 350 351 349 344 342 339 340 339 337 335
330 332 329 327 328 329 336 343 342 342 342 340 341 346 348 350 352 352 353 353 353 353 352 353 351 351 348 340 335 332 331 332 342 344 349 348 346 343 342 340 340 337 335 336
330 329 329 326 326 327 330 339 342 342 342 343 345 348 351 352 351 351 349 347 345 342 342 343 345 346 345 340 333 338 343 341 341 345 347 346 345 342 341 339 338 336 337 335
331 330 330 330 327 328 332 339 342 341 343 344 347 348 344 341 338 336 335 335 335 335 331 323 316 315 315 324 325 342 344 344 346 345 345 344 344 341 338 338 336 336 334 333
332 334 337 338 335 330 334 341 342 342 343 342 340 337 335 334 334 333 333 333 334 333 332 331 328 319 318 318 319 321 327 322 322 321 327 334 339 338 336 336 334 333 331 330
327 330 335 338 339 341 341 342 341 341 338 336 335 334 334 333 333 334 334 333 333 333 333 332 326 325 331 319 327 331 327 321 321 334 337 337 336 336 333 332 331 330 329 327
328 331 333 336 339 341 341 340 337 336 335 335 334 333 332 333 332 331 331 330 331 331 331 331 331 331 324 324 332 327 328 333 334 333 333 334 333 335 333 332 329 322 326 323
327 332 334 335 340 340 338 335 335 334 333 332 330 330 330 331 331 331 330 330 330 331 333 331 331 331 326 332 333 332 332 332 332 332 331 330 331 331 331 331 326 321 318 316
326 332 336 337 340 339 335 334 332 332 332 332 332 331 330 329 329 328 329 330 330 331 334 333 333 333 333 333 332 330 331 328 330 331 331 332 330 330 331 331 325 323 321 318
327 330 335 335 334 333 332 331 331 330 329 329 329 329 329 330 330 330 329 330 331 332 333 333 332 331 331 331 330 329 329 331 328 329 330 329 329 330 329 329 328 324 322 318
328 330 332 331 331 330 330 331 332 331 331 331 331 331 331 330 329 328 328 329 331 332 333 332 324 329 330 324 325 327 327 327 328 328 329 329 328 328 329 330 328 325 321 317
330 330 331 331 332 332 332 332 331 331 331 331 331 330 330 330 330 329 330 330 331 332 332 325 330 331 331 322 321 327 327 327 327 327 327 328 327 329 327 328 326 324 321 318
328 329 329 329 329 329 328 328 328 328 328 329 330 331 331 331 330 330 330 331 334 329 331 324 329 328 329 328 322 326 326 326 326 327 327 327 328 328 327 327 325 323 321 319
324 324 325 325 326 327 327 327 327 327 328 328 328 328 329 330 330 330 330 331 332 325 328 328 327 326 327 322 327 327 327 326 326 325 326 326 327 328 326 326 324 323 321 319
323 324 324 325 325 325 325 325 326 327 328 328 328 329 329 328 327 327 329 332 331 326 329 327 327 323 320 324 326 326 325 325 324 324 325 325 327 327 325 323 323 322 319 314
323 324 325 324 324 324 324 324 325 326 327 327 328 328 328 327 327 328 330 328 328 327 327 326 323 319 324 325 324 325 323 324 323 323 324 324 324 324 324 323 322 320 317 313
318 318 318 319 321 323 324 324 324 324 325 326 325 324 325 325 326 327 327 328 326 325 324 321 318 321 321 321 320 321 322 321 322 322 322 323 321 320 320 319 319 317 315 314
319 320 320 319 319 318 317 318 322 323 323 323 322 322 323 323 324 325 325 323 323 323 321 318 319 320 321 320 319 318 318 317 317 318 319 319 319 319 318 318 317 317 315 314
320 320 319 319 318 317 317 317 316 317 321 321 321 320 320 322 321 323 323 323 323 323 320 320 319 319 319 318 317 318 318 316 315 315 315 317 317 317 317 317 316 314 313 312

GFSNGP_850_thetae_168.txt.gz
Theta_e
332 331 331 330 329 329 331 333 333 335 337 340 341 343 340 338 336 337 336 338 342 345 348 348 348 348 350 350 349 350 352 355 358 358 358 363 363 362 361 361 361 360 360 356
333 332 331 331 331 330 329 329 331 332 334 337 337 336 338 339 338 337 336 336 337 345 349 349 351 350 351 353 352 352 353 355 359 360 360 361 363 362 361 361 358 357 354 354
336 333 331 331 331 331 331 331 330 332 334 335 336 339 339 337 338 338 336 336 335 339 345 350 350 352 352 353 355 355 356 358 359 361 362 363 362 362 360 358 357 356 355 351
334 336 336 333 332 331 332 333 334 334 335 338 337 335 333 333 335 335 336 336 336 339 346 351 352 352 353 353 354 357 359 360 359 361 362 363 362 361 359 358 356 355 353 349
336 336 334 333 333 333 334 335 335 334 336 333 332 332 334 333 333 335 336 334 337 338 351 351 356 355 356 357 357 358 360 359 361 363 363 363 361 360 358 357 354 350 349 346
334 335 337 337 335 332 332 337 338 336 338 334 334 336 337 333 333 333 333 333 336 337 344 357 359 360 359 361 362 362 363 365 365 365 361 363 363 355 355 353 351 348 346 343
334 336 334 334 334 333 337 335 333 332 335 335 338 337 335 332 335 339 342 340 340 344 356 359 360 361 362 364 364 365 366 366 362 356 352 344 344 351 349 349 350 344 340 338
333 335 336 332 332 335 344 336 336 335 334 339 336 337 335 340 345 349 351 352 352 353 356 359 360 361 363 362 364 365 362 350 347 343 344 353 344 343 344 347 342 339 338 337
331 331 335 330 332 331 331 335 341 344 343 341 341 345 347 351 353 353 354 353 355 359 362 363 364 363 363 362 360 359 351 350 352 351 349 349 350 348 345 342 340 337 337 338
331 332 332 330 329 329 330 332 342 342 343 343 341 344 351 353 354 355 358 360 362 362 361 361 359 359 357 355 354 353 354 353 348 345 346 350 348 346 345 343 341 339 338 338
334 334 329 330 327 328 329 329 330 340 341 342 341 348 351 354 356 357 357 357 356 355 355 355 354 353 352 350 348 343 345 347 343 339 340 344 346 344 344 342 340 339 337 336
333 333 335 337 331 330 329 328 328 337 343 342 344 350 353 354 354 354 353 353 352 352 352 351 347 347 346 347 348 340 336 338 341 336 339 342 345 344 341 340 338 339 337 336
328 326 328 332 336 338 337 335 329 338 342 345 350 353 353 349 344 342 340 340 339 338 339 340 342 345 343 341 338 342 344 346 338 344 343 344 344 343 336 337 336 336 334 333
321 322 328 332 334 336 339 340 337 341 346 348 345 341 339 337 336 336 336 337 336 336 334 334 330 327 332 335 333 337 333 329 338 339 333 330 334 336 337 336 335 333 331 330
320 324 328 330 334 336 338 341 342 344 343 340 338 337 335 336 336 337 336 336 336 335 335 335 333 333 326 321 319 322 330 329 333 335 333 333 334 335 334 332 331 332 330 327
322 323 326 328 333 336 338 342 342 341 338 337 337 335 337 336 334 333 333 334 334 334 334 334 334 329 335 328 332 335 335 335 335 335 334 336 333 335 334 332 328 326 326 324
321 323 325 326 331 336 336 341 339 338 338 336 335 335 334 334 332 332 332 333 334 334 333 335 335 335 334 333 334 332 330 328 332 332 331 331 331 331 331 330 326 323 319 319
321 323 323 326 331 333 335 338 337 337 334 333 333 333 333 331 332 332 333 332 334 336 336 335 333 327 331 331 332 331 333 330 328 331 332 331 330 330 331 330 326 322 321 319
323 323 328 331 332 334 340 336 334 334 334 332 331 330 332 331 331 332 332 333 334 335 335 332 327 332 331 328 327 329 328 332 329 329 330 329 329 330 329 329 326 323 322 320
325 327 330 334 332 335 334 332 332 332 332 333 334 333 332 331 330 330 331 333 333 334 332 322 327 332 325 321 327 329 327 327 328 328 328 329 329 329 329 328 327 323 321 319
330 333 333 332 332 332 333 332 333 333 333 333 332 332 332 331 331 330 332 335 334 333 329 322 331 331 331 327 320 326 328 327 328 328 327 329 328 327 327 327 327 323 321 319
328 328 329 329 329 329 329 330 330 330 331 332 332 333 333 331 332 331 332 335 333 331 326 327 328 327 329 325 326 328 328 328 328 328 327 326 328 328 328 328 325 323 322 320
325 326 326 327 327 327 328 329 329 329 330 330 330 330 331 330 330 330 333 333 331 327 329 329 326 326 323 323 328 327 327 326 326 326 326 325 326 327 326 326 324 322 321 320
321 321 324 324 323 324 325 326 326 327 329 329 330 329 330 329 329 331 331 332 330 327 328 328 326 324 320 326 326 326 325 324 325 325 325 324 326 327 326 324 323 322 321 317
317 316 316 318 319 322 323 324 325 326 325 325 326 327 326 327 328 328 329 328 328 327 327 326 323 321 324 324 325 325 323 323 324 323 323 325 323 324 323 323 322 321 318 315
317 319 319 318 318 319 322 323 323 323 323 323 323 323 324 325 325 325 327 327 326 325 323 322 319 321 322 321 321 323 321 321 322 322 322 322 321 322 322 321 320 318 315 315
320 321 318 317 317 318 317 319 321 322 322 322 322 322 323 323 325 326 325 324 324 323 321 321 320 321 321 320 319 319 318 316 317 319 319 320 320 320 319 318 318 318 317 316

GFSNGP_850_thetae_171.txt.gz
Theta_e
328 329 329 328 326 326 324 324 327 330 332 331 336 340 338 338 336 335 336 337 337 336 338 341 350 347 346 347 348 347 348 348 347 347 348 352 355 359 361 360 360 360 360 360
330 329 329 329 329 326 326 325 326 327 328 329 333 335 338 338 337 337 336 337 339 339 339 335 337 348 348 346 346 347 347 347 348 349 352 356 360 362 361 362 361 362 362 360
330 331 331 330 330 329 327 326 326 325 326 329 330 332 338 341 340 337 335 335 338 338 335 334 338 342 350 350 348 346 347 348 349 351 357 360 362 362 361 360 360 359 359 357
330 335 335 332 330 330 329 331 327 327 329 330 330 331 334 332 333 336 338 337 338 339 341 338 340 345 348 353 354 351 350 350 352 357 361 362 360 360 360 359 358 357 356 353
331 332 333 332 333 331 330 330 331 333 331 332 332 333 332 333 333 336 337 336 336 337 340 343 346 350 350 352 354 358 356 356 359 362 362 360 361 360 359 358 357 356 354 352
332 331 333 334 335 333 333 332 335 333 334 333 333 330 330 334 332 332 333 333 333 336 340 348 350 351 353 354 355 358 361 362 363 362 359 360 361 360 357 357 357 353 351 349
331 333 333 334 333 333 336 338 345 339 337 336 332 334 335 334 339 336 333 333 336 338 337 346 352 353 357 357 359 360 361 362 362 360 360 361 359 357 356 354 353 351 347 346
332 334 334 334 335 339 333 336 343 345 343 342 345 340 335 333 335 338 339 344 344 345 354 358 358 358 359 361 362 362 363 364 363 364 362 356 358 355 352 347 344 346 344 341
330 333 332 331 333 329 330 332 331 342 343 342 344 347 347 348 347 348 348 350 353 354 358 361 361 360 362 363 364 365 361 363 365 355 348 347 346 347 344 343 346 344 340 336
330 329 330 330 327 327 330 327 328 330 340 342 345 347 351 354 354 353 356 359 357 358 360 362 362 363 363 365 365 360 358 347 343 339 337 338 341 344 345 344 341 339 337 337
332 329 330 331 329 332 335 334 328 328 330 342 349 352 353 356 358 360 362 363 362 362 363 363 362 360 359 361 358 353 345 347 342 340 343 345 347 347 344 343 342 340 338 338
325 321 324 324 324 331 337 338 339 339 332 340 349 353 354 358 358 359 360 360 360 359 358 356 356 357 356 354 351 345 349 348 345 344 344 346 345 346 346 345 343 341 340 337
316 318 320 320 321 332 332 335 338 339 337 345 352 353 354 356 356 356 355 355 354 354 353 352 351 351 346 341 336 336 336 339 343 346 349 349 348 345 344 342 340 337 338 336
315 315 317 319 321 329 329 334 338 340 340 349 353 354 354 353 352 353 352 351 351 350 349 347 345 345 341 333 342 346 346 344 343 339 335 343 345 342 341 333 333 335 334 332
314 315 316 322 323 327 328 334 338 345 348 351 353 352 350 345 343 340 340 340 340 339 338 336 331 333 336 339 342 342 345 338 339 343 331 333 331 333 334 335 335 332 331 328
315 316 319 319 323 325 327 329 335 341 343 342 342 340 338 337 337 337 336 334 329 328 326 324 323 323 322 321 320 323 326 332 334 334 332 331 333 335 333 332 331 330 328 327
312 317 321 322 323 324 325 331 333 339 339 338 337 337 336 337 336 336 335 334 332 329 327 324 321 322 320 328 330 329 332 334 336 334 334 334 333 332 333 333 331 328 324 324
312 316 319 321 323 323 330 331 334 340 338 336 337 338 337 335 334 333 335 334 332 331 333 332 333 332 332 334 334 333 330 330 331 331 331 332 332 331 331 329 327 325 321 321
313 315 318 322 323 324 330 333 336 339 337 337 336 334 333 332 332 333 334 333 334 336 335 332 327 325 325 331 331 332 332 331 326 330 330 331 330 330 331 329 326 324 321 320
314 318 322 322 327 333 335 337 338 335 335 334 333 333 332 332 334 332 334 336 336 335 333 325 327 326 321 323 329 328 329 332 329 328 330 330 329 330 329 329 327 323 322 320
324 323 321 331 335 334 334 333 333 333 332 332 333 333 332 331 333 333 334 335 336 335 325 324 328 328 321 321 328 327 327 328 328 329 330 329 329 329 329 329 327 325 323 320
322 328 331 332 332 333 333 333 334 334 333 333 332 332 331 330 331 333 333 332 335 334 327 330 331 331 327 324 324 328 329 328 328 327 329 328 327 327 328 329 327 325 323 321
328 328 328 329 329 329 330 330 331 331 332 334 333 332 332 332 332 333 334 334 332 329 325 328 329 327 328 325 328 328 328 327 327 327 326 326 326 327 327 327 324 323 321 320
324 325 326 326 323 321 318 320 322 324 328 330 329 328 329 330 330 331 332 333 331 329 328 329 327 326 323 325 327 326 324 323 326 326 325 324 325 326 327 327 325 324 322 320
317 318 320 321 323 324 324 324 321 320 319 318 326 328 328 329 328 328 332 331 329 328 328 328 326 324 321 326 326 326 323 322 325 324 323 324 326 327 326 325 324 322 322 321
317 317 316 317 318 317 320 322 323 323 323 324 324 324 325 325 326 326 326 328 328 327 326 326 323 321 323 323 324 326 323 322 322 323 324 323 323 325 324 323 322 322 320 316
318 318 318 318 318 317 318 317 316 318 320 321 322 322 323 323 323 324 325 326 326 324 322 322 321 322 321 321 324 323 320 319 319 322 322 321 322 321 322 320 321 320 318 315

GFSNGP_850_thetae_174.txt.gz
Theta_e
324 324 326 323 322 321 319 319 321 321 326 327 331 332 335 337 336 338 340 342 343 343 344 344 344 344 344 344 344 345 343 344 344 344 344 346 348 349 351 355 355 356 358 359
324 325 325 327 326 322 322 321 322 323 324 325 329 332 335 336 335 338 340 342 340 339 340 341 342 342 340 343 345 347 347 346 345 346 347 347 349 352 356 358 358 360 360 358
326 325 325 326 325 325 323 321 322 322 322 324 325 330 335 336 336 334 337 337 340 340 340 341 340 341 341 340 343 346 347 349 348 347 348 349 351 355 358 360 360 359 357 357
323 327 328 326 325 326 326 327 323 322 322 323 324 328 331 332 332 338 337 337 336 338 342 341 340 341 341 343 346 348 347 349 349 349 350 352 355 358 361 360 360 358 357 357
327 326 327 330 329 327 327 328 329 324 323 326 327 329 331 332 331 331 335 337 338 340 336 337 340 343 345 346 347 349 350 347 348 349 351 354 357 360 358 357 358 358 356 356
326 327 328 326 331 331 326 327 332 338 326 328 328 325 323 333 333 336 337 335 335 335 337 341 344 347 345 348 348 350 354 352 350 351 354 358 359 357 356 359 358 357 358 355
326 329 327 329 331 331 330 329 333 342 337 330 327 329 330 334 333 333 332 332 333 334 335 340 344 343 347 350 351 351 354 358 359 361 362 361 359 357 359 359 357 357 351 350
325 328 332 327 330 329 328 330 330 331 337 345 340 334 333 334 334 333 333 334 335 336 338 344 347 352 354 355 356 355 358 362 363 362 361 360 361 362 358 356 348 344 349 346
324 326 325 325 328 327 331 336 334 328 328 341 348 340 344 344 341 338 335 336 339 340 346 354 357 357 356 359 358 359 360 361 362 362 363 361 359 356 344 343 341 343 345 344
323 320 319 321 321 321 328 333 336 338 337 332 351 351 351 351 352 352 351 348 349 348 357 360 360 359 357 359 360 359 361 362 361 362 360 354 349 345 341 340 344 346 344 341
323 317 318 320 318 318 325 329 333 336 338 337 353 353 352 352 352 352 354 356 358 359 360 361 362 361 360 361 360 362 360 361 357 347 339 336 339 343 344 345 345 343 341 338
317 314 316 315 316 318 321 328 330 335 338 337 353 353 353 354 354 353 355 359 359 359 360 362 362 361 361 358 354 356 350 344 339 338 341 337 340 341 345 343 342 341 340 339
310 311 312 314 315 317 320 328 328 335 338 339 355 353 353 355 358 358 359 360 360 361 361 360 359 358 355 355 353 345 339 339 340 339 337 341 344 344 343 343 343 342 340 338
312 311 311 312 313 318 320 326 326 340 345 337 354 354 354 355 358 358 358 358 357 357 356 354 353 353 353 347 344 340 335 336 336 338 339 343 342 341 341 343 337 331 333 335
309 310 312 315 316 317 318 323 324 333 343 351 354 351 354 354 355 354 354 353 353 353 351 352 351 348 340 332 328 328 329 332 334 335 333 338 342 339 337 332 330 331 331 331
310 312 313 313 315 316 322 323 323 327 336 343 348 353 353 353 352 351 351 350 350 349 348 345 343 337 334 336 338 342 343 343 339 339 331 330 330 331 331 332 332 332 331 330
308 308 309 310 316 319 321 321 321 323 336 340 342 350 349 347 344 341 340 342 343 341 340 337 334 336 337 339 336 337 330 326 328 332 329 329 330 330 331 330 328 329 328 327
309 309 309 311 314 315 320 321 320 322 338 339 339 341 341 339 337 336 333 330 327 327 327 326 323 322 320 321 325 326 327 329 332 333 332 331 331 330 330 331 330 327 324 322
308 308 308 309 311 315 321 320 318 326 337 338 337 337 336 336 335 334 333 332 329 327 324 323 321 321 328 331 331 332 328 332 334 331 331 332 332 331 330 331 328 322 323 318
309 308 309 311 314 320 322 319 323 334 338 338 337 337 336 335 335 333 333 332 328 326 327 329 328 328 331 333 333 333 332 330 326 329 332 331 331 329 330 329 327 323 322 319
311 309 308 311 320 321 322 330 335 338 338 337 336 335 334 333 333 333 334 332 332 333 330 324 323 323 321 326 330 328 329 329 327 329 330 330 331 329 330 328 328 324 321 320
315 310 310 315 325 328 330 334 335 336 336 335 334 333 333 333 333 332 332 332 334 333 325 324 326 325 322 321 326 327 328 327 329 330 330 330 330 330 329 328 328 325 322 320
322 322 323 328 329 330 332 333 332 332 333 332 332 331 330 330 333 332 334 334 334 335 324 327 328 330 328 322 327 328 328 327 328 328 329 329 328 328 327 326 327 327 323 320
325 327 327 327 329 329 326 326 330 331 331 332 332 332 332 333 334 333 334 333 335 330 324 330 328 327 327 325 328 328 328 327 326 326 327 327 327 327 327 327 327 327 324 321
321 323 323 322 321 323 320 321 320 324 327 327 328 329 330 329 331 331 331 332 331 328 326 328 327 326 325 324 327 327 324 322 322 325 325 325 326 326 326 327 326 324 322 322
316 316 318 321 321 322 322 321 322 321 320 324 325 326 327 328 327 325 327 329 329 328 328 328 328 326 323 325 326 326 324 321 322 324 323 323 325 326 326 326 325 324 323 321
318 318 318 318 316 314 316 315 315 317 319 321 321 320 321 323 324 324 325 326 326 327 327 327 326 322 321 326 325 325 324 322 321 322 323 322 322 326 326 325 324 322 321 320